COSMOS 2251 DEB

Satellite information

Favourite Embed

Satellite Type and Status

DEBRISIN ORBIT

Key statistics

Satellite COSMOS 2251 DEB at a glance.

Uptime

11710

Days in orbit

Revolutions

≈ 13.9

Per day

Orbit

LEO

Low Earth Orbit

Inclination

74.1

Latest

Satellite identification and parameters

Extended collection of information and parameters for COSMOS 2251 DEB.

Object identification

Identified? True

Debris? True

Object name: COSMOS 2251 DEB

International designator: 1993-036AYU

Object number (NORAD): 36367

Object ID (CCSDS): 36367

Country: COMMONWEALTH OF INDEPENDENT STATES (CIS)

Current information (Y/N): Y

RCS size: SMALL

Orbital parameters

Period: 103.926 minutes

Inclination: 74.0983 deg

SMA: 7322.241 km

Apoapsis: 1139.615 km

Periapsis: 748.597 km

RAAN: 139.7739 deg

Eccentricy: 0.0267007

Argument of periapsis: 250.6519 deg

Mean anomaly: 106.5566 deg

Mean motion: 13.85596479 rev/day

Mean motion (dot): 0.00000718 rev/day2

B* drag term: 0.00049219 1/REarth

Two-line elements (TLE)

Creation date: July 6, 2025, 2:26 p.m.

Reference frame: TEME

Reference center: EARTH

Epoch: July 6, 2025, 12:59 p.m. UTC

TLE line 0: 0 COSMOS 2251 DEB

TLE line 1: 1 36367U 93036AYU 25187.54104222 .00000718 00000-0 49219-3 0 9993

TLE line 2: 2 36367 74.0983 139.7739 0267007 250.6519 106.5566 13.85596479805804

Live tracking on map

Real-time ground track for satellite COSMOS 2251 DEB.

In-orbit conjunctions

A list of the most updated potential collisions computed for object COSMOS 2251 DEB.

Target Orbit TCA Probability of collision Miss distance Type
SL-3 DEB LEO 2024-09-28 04:09:16 0.001917551 381.0 (m) DEBRIS

Associated space launch

Military communications satellite. Destroyed in a collision with Iridium 33.

COSMOS 2251 DEB was lifted into orbit during the mission ‘Kosmos-3M | Strela-2M 51’, on board a Kosmos-3M space rocket.

The launch took place on June 16, 1993, 4:17 a.m. from 132/1 (132L).

For more information about the launch, click the button.

Launch to space Kosmos-3M | Strela-2M 51
Kosmos-3M | Strela-2M 51

Agency: N/A

Status: Launch Successful

Launch date: June 16, 1993, 4:17 a.m. UTC

Rocket: Kosmos-3M

Launch pad: 132/1 (132L)

Location: Plesetsk Cosmodrome, Russian Federation

...

Latest news about this satellite

There are no fresh news available about this satellite. Check back as we update our databases every day.


Newsletter sign-up

Weekly statistics, charts and insights to help you stay on top of the space industry.